#timestamp,LO_Frequency,Hit,StdDev 
1672455615.2,286046988.8,N
1672455635.1,286046988.7,N
1672455636.0,286046988.7,N
1672455655.8,286046991.3,N
1672455675.7,286046987.9,Y
1672455695.5,286046993.3,P
1672455715.3,286047002.1,N
1672455735.2,286047000.5,N
1672455755.0,286047006.5,N
1672455755.9,286047006.5,N
1672455775.7,286047008.8,N
1672455795.6,286047004.0,N
1672455815.4,286046999.8,N
1672455835.3,286047006.5,N
1672455855.1,286047009.8,N
1672455856.0,286047009.8,N
1672455875.8,286047012.4,N
1672455895.7,286047017.2,N
1672455915.5,286047010.3,N
1672455935.3,286047007.5,N
1672455955.2,286047004.4,N
1672455975.0,286047002.0,N
1672455975.9,286047002.0,N
1672455995.8,286046996.0,N
1672456015.6,286046998.8,N
1672456035.4,286046994.4,N
1672456055.3,286046985.4,N
1672456075.1,286046988.3,N
1672456095.8,286046994.3,N
1672456115.7,286046995.3,N
1672456135.5,286046991.8,N
1672456155.4,286046991.7,N
1672456175.2,286046991.0,N
1672456195.0,286046987.1,N
1672456195.9,286046987.1,N
1672456215.8,286046987.5,N
1672456235.7,286046983.0,N
1672456255.5,286046976.2,N
1672456275.4,286046979.6,N
1672456295.2,286046981.6,N
1672456315.0,286046990.7,N
1672456315.9,286046990.7,N
1672456335.8,286046991.7,N
1672456355.6,286046993.0,N
1672456375.5,286046990.5,N
1672456395.3,286046984.6,N
1672456415.1,286046981.9,N
1672456435.9,286046974.0,N
1672456455.7,286046967.0,Y
1672456475.6,286046979.2,P
1672456495.4,286046985.7,N
1672456515.2,286046993.3,N
1672456535.1,286046986.3,N
1672456536.0,286047001.2,N
1672456555.8,286047006.1,N
1672456575.6,286047010.1,N
1672456595.5,286047012.4,N
1672456615.3,286047006.5,N
1672456635.2,286047006.3,N
1672456655.9,286047007.6,N
1672456675.7,286047010.0,N
1672456695.6,286047006.1,N
1672456715.4,286047001.3,N
1672456735.3,286047004.4,N
1672456755.1,286047002.8,N
1672456756.0,286047002.8,N
1672456775.8,286046998.2,N
1672456795.7,286046995.8,N
1672456815.5,286046994.2,N
1672456835.3,286046992.1,N
1672456855.2,286046994.5,N
1672456875.0,286046993.3,N
1672456875.9,286046993.3,N
1672456895.8,286047000.2,N
1672456915.6,286047007.5,N
1672456935.4,286047009.4,N
1672456955.3,286047006.9,N
1672456975.1,286046998.9,N
1672456995.8,286047003.0,N
1672457015.7,286047012.5,N
1672457035.5,286047010.5,N
1672457055.4,286047003.9,N
1672457075.2,286047003.9,N
1672457095.0,286047003.8,N
1672457095.9,286047003.8,N
1672457115.8,286047004.8,N
1672457135.6,286047006.1,N
1672457155.4,286047007.2,N
1672457175.3,286047010.6,N
1672457195.1,286047017.9,Y
1672457215.9,286047013.7,P
1672457235.7,286047017.9,P
1672457255.5,286047015.8,N
1672457275.4,286047001.7,N
1672457295.2,286046996.5,N
1672457315.0,286046994.0,N
1672457315.9,286046994.0,N
1672457335.8,286046990.6,N
1672457355.6,286046990.7,N
1672457375.5,286046980.9,N
1672457395.3,286046977.8,N
1672457415.1,286046978.4,N
1672457435.9,286046976.5,N
1672457455.8,286046978.8,N
1672457475.6,286046976.2,N
1672457495.5,286046973.2,N
1672457515.3,286046969.1,N
1672457535.1,286046972.2,N
1672457555.9,286046969.4,N
1672457575.7,286046973.9,N
1672457595.5,286046977.4,N
1672457615.4,286046980.9,N
1672457635.2,286046978.3,N
1672457655.0,286046972.8,N
1672457656.0,286046972.8,N
1672457675.8,286046971.8,N
1672457695.6,286046970.5,N
1672457715.5,286046963.9,N
1672457735.3,286046961.3,N
1672457755.1,286046962.6,N
1672457775.9,286046962.4,N
1672457795.7,286046962.2,N
1672457815.5,286046964.3,N
1672457835.4,286046962.8,Y
1672457855.2,286046989.5,P
1672457875.1,286046987.6,N
1672457876.0,286046987.6,N
1672457895.8,286046989.6,N
1672457915.6,286046987.8,N
1672457935.5,286046989.3,N
1672457955.3,286046993.9,N
1672457975.1,286046994.7,N
1672457995.9,286046989.2,N
1672458015.7,286046988.9,N
1672458035.6,286046988.2,N
1672458055.4,286046985.4,Y
1672458075.2,286046996.5,P
1672458095.1,286046995.8,N
1672458096.0,286046995.8,N
1672458115.8,286046995.4,N
1672458135.6,286046995.1,N
1672458155.5,286046997.6,N
1672458175.3,286046995.4,N
1672458195.2,286046994.6,N
1672458215.0,286046992.0,Y
1672458215.9,286046992.0,P
1672458235.7,286046998.9,N
1672458255.6,286046999.8,N
1672458275.4,286047001.4,N
1672458295.3,286047007.5,N
1672458315.1,286047006.3,N
1672458316.0,286047006.3,N
1672458335.8,286047002.5,N
1672458355.7,286046998.5,N
1672458375.5,286047007.0,N
1672458395.3,286047006.2,N
1672458415.2,286047003.9,N
1672458435.0,286047001.2,N
1672458435.9,286047001.2,N
1672458455.8,286047002.6,N
1672458475.6,286047007.3,N
1672458495.4,286047003.6,N
1672458515.3,286046996.6,N
1672458535.1,286046994.5,N
1672458555.8,286046996.6,N
1672458575.7,286047001.7,N
1672458595.5,286046998.7,N
1672458615.4,286046999.2,N
1672458635.2,286047001.7,N
1672458655.0,286047002.5,N
1672458655.9,286047002.5,N
1672458675.8,286047003.7,N
1672458695.6,286047000.5,N
1672458715.5,286046998.9,N
1672458735.3,286047000.6,N
1672458755.1,286046999.3,N
1672458775.9,286047000.9,N
1672458795.7,286047006.3,N
1672458815.6,286047009.4,N
1672458835.4,286047002.7,N
1672458855.2,286046998.8,N
1672458875.1,286046995.3,N
1672458876.0,286046995.3,N
1672458895.8,286047000.7,N
1672458915.7,286047009.1,N
1672458935.5,286047006.8,N
1672458955.3,286047002.8,N
1672458975.2,286047000.9,N
1672458995.0,286046996.1,N
1672458995.9,286046996.1,N
1672459015.8,286046996.2,N
1672459035.6,286046996.8,N
1672459055.4,286047000.0,N
1672459075.3,286046998.7,N
1672459095.1,286046994.0,N
1672459115.8,286046994.4,N
1672459135.7,286046992.2,N
1672459155.5,286046993.7,N
1672459175.3,286046993.2,N
1672459195.2,286046995.7,N
